This demonstration page uses our WeatherBlox Daily Observations layout. Learn more.

Left ArrowRight Arrow

Hourly Observations for August 20, 2015

Temp ( °F °C ) Dew Point ( °F °C ) Humidity (%) Winds ( mph kmh ) Pressure ( in mb ) Visibility ( mi km ) Precip ( " mm )
12:51 am 00:51 Clear 78 25.6 48 8.9 35 35 NNW 6 9 29.70 1006 10 16 0.00 0.00
1:51 am 01:51 Clear 76 24.4 49 9.4 39 39 WNW 5 7 29.71 1006 10 16 0.00 0.00
2:51 am 02:51 Clear 77 25 49 9.4 37 37 NNW 6 9 29.70 1006 10 16 0.00 0.00
3:51 am 03:51 Clear 83 28.3 78 25.6 85 85 Calm 29.94 1014 10 16 0.00 0.00
4:51 am 04:51 Clear 35 1.7 31 -0.6 85 85 ESE 6 9 30.01 1016 10 16 0.00 0.00
5:51 am 05:51 Sunny 72 22.2 47 8.3 41 41 ESE 6 9 29.78 1009 10 16 0.00 0.00
6:51 am 06:51 Cloudy 73 22.8 47 8.3 40 40 E 7 11 29.72 1006 10 16 0.00 0.00
7:51 am 07:51 Sunny 77 25 75 23.9 94 94 SSE 3 6 29.86 1011 10 16 0.04 1.02
8:51 am 08:51 Sunny 88 31.1 54 12.2 31 31 NW 9 15 29.80 1009 10 16 0.00 0.00
9:51 am 09:51 Sunny 91 32.8 56 13.3 31 31 NW 10 17 29.80 1009 10 16 0.00 0.00
10:51 am 10:51 Sunny 94 34.4 56 13.3 28 28 W 17 28 29.78 1009 10 16 0.00 0.00
11:51 am 11:51 Sunny 97 36.1 54 12.2 24 24 NW 13 20 29.75 1008 10 16 0.00 0.00
12:51 pm 12:51 Sunny 100 37.8 52 11.1 20 20 W 13 20 29.73 1007 10 16 0.00 0.00
1:51 pm 13:51 Sunny 102 38.9 50 10 17 17 W 15 24 29.70 1006 10 16 0.00 0.00
2:51 pm 14:51 Mostly Sunny 102 38.9 47 8.3 15 15 NW 13 20 29.67 1005 10 16 0.00 0.00
3:51 pm 15:51 Mostly Sunny 102 38.9 46 7.8 15 15 W 16 26 29.66 1004 10 16 0.00 0.00
4:51 pm 16:51 Sunny 77 25 72 22.2 85 85 NW 15 24 29.93 1014 10 16 0.00 0.00
5:51 pm 17:51 Mostly Cloudy 94 34.4 54 12.2 26 26 S 17 28 29.67 1005 10 16 0.00 0.00
6:51 pm 18:51 Partly Cloudy 94 34.4 53 11.7 25 25 WSW 3 6 29.69 1005 10 16 0.00 0.00
7:11 pm 19:11 Mostly Clear with Nearby Thunderstorms 91 32.8 56 13.3 31 31 NNE 8 13 29.62 1003 10 16 0.00 0.00
7:26 pm 19:26 Partly Cloudy with Light Rain 90 32 57 14 33 33 E 14 22 29.65 1004 10 16 0.00 0.00
7:51 pm 19:51 Clear 90 32.2 56 13.3 32 32 NNE 5 7 29.70 1006 10 16 0.00 0.03
8:51 pm 20:51 Clear 89 31.7 58 14.4 35 35 NNW 16 26 29.69 1006 10 16 0.00 0.00
9:51 pm 21:51 Clear 77 25 72 22.2 85 85 NNW 12 19 29.96 1015 10 16 0.01 0.25
10:51 pm 22:51 Clear 85 29.4 58 14.4 40 40 NW 9 15 29.71 1006 10 16 0.00 0.00
11:51 pm 23:51 Clear 83 28.3 58 14.4 43 43 NW 8 13 29.72 1006 10 16 0.00 0.00

Powered by AerisWeather